Probability
18 19 18 14 10 9 7 6 5 5 6 8 8 8 8 8 7 7 6 4 2 1 0 0 0 0 0 0 0 0 0 0 0 0 0 0 0 0 0 0 0 0 0
26 26 27 25 19 13 9 8 7 5 5 5 6 7 8 7 6 5 4 2 1 0 0 0 0 0 0 0 0 0 0 0 0 0 0 0 0 0 0 0 0 0 0
46 41 41 41 34 24 17 13 9 5 4 3 4 6 8 7 6 5 4 2 1 0 0 0 0 0 0 0 0 0 0 0 0 0 0 0 0 0 0 0 0 0 0
65 59 53 50 49 41 29 22 14 6 3 3 4 6 8 8 7 6 4 3 2 1 0 0 0 0 0 0 0 0 0 0 0 0 0 0 0 0 0 0 0 0 0
75 71 62 58 63 60 47 37 28 15 8 5 5 8 9 8 7 6 4 3 3 2 1 0 0 0 0 0 0 0 0 0 0 0 0 0 0 0 0 0 0 0 0
72 75 73 70 77 79 69 58 49 38 22 10 7 9 9 7 6 5 3 2 2 2 2 1 0 0 0 0 0 0 0 0 0 0 0 0 0 0 0 0 0 0 0
64 73 80 81 87 91 84 73 67 58 39 19 9 9 8 5 4 4 2 1 1 1 2 2 1 0 0 0 0 0 0 0 0 0 0 0 0 0 0 0 0 0 0
52 63 74 79 85 88 83 73 65 57 44 25 11 9 9 6 3 3 1 0 0 0 1 1 1 0 0 0 0 0 0 0 0 0 0 0 0 0 0 0 0 0 0
35 42 53 61 66 70 66 56 47 41 35 25 13 9 10 6 3 2 1 0 0 0 0 0 0 0 0 0 0 0 0 0 0 0 0 0 0 0 0 0 0 0 0
13 18 25 31 37 40 38 32 28 26 23 18 13 9 9 6 4 2 1 0 0 0 1 1 1 1 1 0 0 0 1 1 0 0 0 0 0 0 0 0 0 0 0
1 3 6 8 11 14 14 13 14 14 13 11 8 7 6 5 3 2 1 0 0 0 1 2 2 1 0 0 0 0 1 1 1 0 0 0 0 0 0 0 0 0 0
0 0 0 0 1 2 2 3 4 5 5 4 3 4 4 3 2 1 0 0 0 0 1 2 2 1 0 0 0 0 1 1 1 0 0 0 0 0 0 0 0 0 0
0 0 0 0 0 0 0 0 0 1 1 0 1 3 3 2 1 0 0 0 0 0 0 1 1 0 0 0 0 0 0 0 0 0 0 0 0 0 0 0 0 0 0
0 0 0 0 0 0 0 0 0 0 0 0 1 2 2 1 0 0 1 0 0 0 0 0 0 0 0 0 0 0 0 0 0 0 0 0 0 0 0 0 0 0 0
0 0 0 0 0 0 0 0 0 0 0 0 1 1 1 0 0 0 0 0 0 0 0 0 0 0 0 0 0 0 0 0 0 0 0 0 0 0 0 0 0 0 0
0 0 0 0 0 0 0 0 0 0 0 0 0 0 0 0 0 0 0 0 0 0 0 0 0 0 0 0 0 0 0 0 0 0 0 0 0 0 0 0 0 0 0
0 0 0 0 0 0 0 0 0 0 0 0 0 0 0 0 0 0 0 0 0 0 0 0 0 0 0 0 0 0 0 0 0 0 0 0 0 0 0 0 0 0 0
0 0 0 0 0 0 0 0 0 0 0 0 0 0 0 0 0 0 0 0 0 0 0 0 0 0 0 0 0 0 0 0 0 0 0 0 0 0 0 0 0 0 0
0 0 0 0 0 0 0 0 0 0 0 0 0 0 0 0 0 0 0 0 0 0 0 0 0 0 0 0 0 0 0 0 0 0 0 0 0 0 0 0 0 0 0
0 0 0 0 0 0 0 0 0 0 0 0 0 0 0 0 0 0 0 0 0 0 0 0 0 0 0 0 0 0 0 0 0 0 0 0 0 0 0 0 0 0 0
0 0 0 0 0 0 0 0 0 0 0 0 0 0 0 0 0 0 0 0 0 0 0 0 0 0 0 0 0 0 0 0 0 0 0 0 0 0 0 0 0 0 0
0 0 0 0 0 0 0 0 0 0 0 0 0 0 0 0 0 0 0 0 0 0 0 0 0 0 0 0 0 0 0 0 0 0 0 0 0 0 0 0 0 0 0
0 0 0 0 0 0 0 0 0 0 0 0 0 0 0 0 0 0 0 0 0 0 0 0 0 0 0 0 0 0 0 0 0 0 0 0 0 0 0 0 0 0 0
0 0 0 0 0 0 0 0 0 0 0 0 0 0 0 0 0 0 0 0 0 0 0 0 0 0 0 0 0 0 0 0 0 0 0 0 0 0 0 0 0 0 0
0 0 0 0 0 0 0 0 0 0 0 0 0 0 0 0 0 0 0 0 0 0 0 0 0 0 0 0 0 0 0 0 0 0 0 0 0 0 0 0 0 0 0
0 0 0 0 0 0 0 0 0 0 0 0 0 0 0 0 0 0 0 0 0 0 0 0 0 0 0 0 0 0 0 0 0 0 0 0 0 0 0 0 0 0 0
Wind_Speed
6 6 6 4 3 3 2 2 3 3 3 3 5 5 6 6 6 5 5 5 6 5 5 5 4 3 2 1 1 1 1 1 3 3 3 4 6 6 4 5 6 5 5
6 6 7 6 5 4 4 4 3 3 4 3 4 4 5 6 6 6 6 6 6 6 5 5 5 4 4 2 1 1 2 2 2 3 3 4 6 7 7 6 6 6 6
6 5 6 6 6 5 4 4 4 4 5 4 4 4 4 5 5 5 5 5 5 5 5 5 5 5 4 3 2 2 2 3 2 2 3 2 3 5 7 5 5 3 7
8 6 5 5 5 5 4 4 4 4 5 5 5 5 5 5 5 5 5 5 5 5 5 5 5 5 5 4 3 3 2 2 3 3 2 2 2 3 5 5 4 3 4
8 6 5 4 5 5 4 4 5 4 3 4 5 5 5 5 6 6 6 6 5 5 5 5 6 7 8 6 4 3 3 2 2 3 3 2 3 3 4 5 4 4 3
5 5 5 3 4 4 3 3 4 4 2 2 3 4 5 4 8 10 6 5 5 5 5 5 6 7 9 10 10 8 7 5 4 3 3 4 6 5 4 4 4 4 4
3 4 4 3 3 3 2 3 3 3 4 4 3 4 5 6 11 10 8 4 4 4 5 5 5 6 8 6 9 12 11 12 11 5 5 6 6 6 7 6 6 6 5
7 6 4 2 2 1 2 3 3 3 3 4 4 4 4 8 12 12 10 5 4 4 5 6 6 6 7 7 7 7 7 8 10 8 7 7 6 5 8 9 8 5 3
9 8 6 5 4 2 2 3 3 3 3 4 4 3 4 7 12 12 10 4 4 6 6 5 5 3 5 7 5 5 5 6 8 10 9 6 5 5 6 5 5 4 3
7 6 6 5 4 3 3 3 3 2 3 3 3 4 5 6 11 13 11 4 4 4 2 2 5 4 6 6 4 4 5 5 4 5 5 6 5 5 7 6 6 5 4
5 5 5 4 4 3 3 3 2 2 2 3 3 3 3 4 10 12 10 3 2 1 0 0 2 5 5 4 3 3 4 3 3 4 5 5 4 4 4 3 3 4 4
3 4 4 4 4 4 3 3 3 2 2 3 2 2 1 3 7 8 9 5 1 1 1 1 2 5 4 2 2 3 4 3 2 2 3 3 3 3 3 3 2 2 2
3 3 3 4 4 5 4 4 3 3 2 2 2 1 1 1 4 7 6 4 2 0 2 4 4 4 2 2 3 3 2 2 1 1 2 3 3 3 3 2 2 1 1
2 2 3 5 5 5 5 5 4 4 4 3 2 1 0 1 3 3 3 3 3 2 2 3 3 2 0 0 2 2 2 1 0 1 1 1 2 2 2 2 2 2 1
3 4 5 4 4 4 5 5 5 5 4 3 3 3 2 2 3 4 2 2 2 1 2 2 2 2 2 2 2 1 1 1 0 0 0 1 1 2 2 2 2 3 3
4 4 3 2 2 2 3 4 8 8 10 11 10 7 5 6 5 6 7 6 6 4 2 1 1 1 2 2 1 1 0 0 0 0 0 0 1 1 2 2 2 3 4
3 3 2 2 2 1 1 2 3 4 8 12 12 12 10 8 7 6 6 6 6 4 2 1 0 0 1 1 1 1 0 0 1 0 1 1 1 2 2 3 3 3 4
2 2 1 1 1 1 1 1 2 2 3 4 7 10 9 9 8 7 4 3 3 2 2 2 2 2 2 2 2 1 1 1 0 1 1 2 2 2 2 3 3 4 4
2 2 2 2 1 1 1 1 3 4 3 2 2 3 4 4 4 5 3 2 3 3 3 3 3 3 3 2 2 2 2 1 1 1 1 1 1 1 2 3 3 4 4
3 3 2 2 1 1 1 1 3 3 3 3 3 2 1 1 2 3 3 3 3 3 3 3 3 3 3 3 2 2 2 2 2 2 1 1 1 2 2 3 2 2 3
2 4 1 2 1 2 1 2 3 3 3 3 3 3 5 2 3 3 3 3 3 3 3 3 3 3 3 3 3 3 3 3 3 3 3 2 2 2 2 2 2 2 2
1 3 2 1 2 2 2 3 3 3 4 4 3 2 3 2 2 3 3 3 3 3 3 3 3 3 3 3 3 3 3 4 4 4 3 3 3 3 3 3 2 2 2
1 2 2 2 2 2 1 2 3 3 3 3 3 2 1 2 2 3 3 3 3 4 4 4 4 4 4 4 4 4 4 4 4 5 5 4 3 3 3 3 3 3 3
1 1 2 2 1 2 2 2 3 3 4 3 2 2 2 2 3 4 4 3 4 4 4 4 4 6 7 5 4 4 4 5 5 4 6 5 5 4 3 3 3 3 3
1 2 2 2 1 2 2 3 3 3 3 3 3 3 3 3 4 4 4 4 4 5 5 5 4 5 7 8 7 5 7 8 7 5 4 4 4 4 3 3 3 3 3
2 2 2 2 2 1 2 3 3 4 3 3 4 4 4 4 4 4 4 4 4 4 4 4 6 8 8 6 7 8 9 9 9 8 4 3 4 3 3 2 3 3 3
Wind_Direction
181 168 152 186 174 166 174 173 166 166 161 178 175 177 171 173 178 177 182 183 190 190 190 187 188 164 165 218 272 298 288 198 203 226 189 164 158 156 148 150 159 162 154
185 175 167 174 161 175 189 179 179 172 171 195 179 171 168 170 172 176 184 183 187 192 191 188 187 175 172 187 210 277 283 274 228 228 197 178 175 166 160 180 177 179 156
180 189 161 162 168 182 200 172 179 188 183 179 171 168 168 161 169 178 177 179 185 187 183 178 178 170 173 178 198 236 261 277 271 238 208 185 187 167 160 185 193 169 161
172 180 172 172 172 172 191 178 194 208 195 180 181 173 169 167 174 177 172 172 172 172 173 176 178 179 183 182 197 216 239 270 276 264 222 176 190 177 162 174 192 190 167
161 165 173 184 166 172 198 188 196 217 213 189 177 175 163 169 179 170 171 173 176 177 179 185 188 189 190 188 193 199 210 229 254 250 224 184 185 182 194 177 182 181 205
150 156 155 168 159 174 202 215 197 193 216 230 179 171 163 172 152 159 163 167 176 180 187 195 199 200 205 207 215 216 211 214 225 233 227 208 205 198 196 186 173 169 210
83 113 127 144 151 161 198 238 225 192 204 232 223 180 170 156 155 158 167 165 180 189 193 193 205 203 199 206 220 228 230 229 224 219 231 231 218 201 194 204 197 190 201
40 40 53 48 55 146 212 241 236 221 209 222 237 207 169 164 168 169 174 189 205 214 209 204 204 205 199 203 211 216 221 228 227 225 228 229 227 214 202 203 200 196 198
29 23 25 19 9 346 280 268 258 247 232 220 228 216 186 168 177 177 174 196 221 230 226 210 197 195 189 197 208 224 232 238 228 219 218 212 201 216 200 175 175 169 184
25 19 18 13 360 346 333 308 290 275 258 242 231 215 201 179 181 184 184 201 226 239 235 191 179 174 155 173 207 234 243 243 222 196 196 186 191 195 192 182 174 174 178
24 18 12 6 350 4 359 343 328 309 296 277 262 239 217 180 175 185 188 210 224 241 279 134 140 161 162 178 211 245 256 262 236 201 190 194 195 183 188 198 177 172 178
29 19 13 9 10 26 21 4 350 339 314 294 287 281 238 158 161 182 189 207 341 350 0 67 122 144 157 181 223 240 264 275 247 194 182 189 191 187 184 186 178 163 156
41 29 26 27 37 32 20 13 2 355 342 325 304 286 281 126 133 158 181 192 192 18 67 85 124 150 160 198 221 234 252 255 223 191 204 207 193 179 155 146 144 102 76
57 53 57 46 41 43 33 21 16 16 8 357 358 356 343 129 135 155 173 175 175 184 162 128 132 125 278 293 167 217 239 249 161 195 217 176 135 133 144 147 153 151 170
38 62 75 69 57 56 61 39 18 40 33 19 3 8 27 62 61 73 96 124 146 163 144 144 172 180 208 216 198 197 198 135 76 18 67 140 153 164 164 155 156 164 186
45 44 53 80 74 73 105 94 52 53 52 52 45 43 56 64 75 78 77 77 71 66 93 183 218 220 211 204 181 174 154 170 184 5 338 254 199 195 181 166 170 188 209
52 55 38 62 86 63 92 128 123 79 64 55 48 49 54 55 65 77 82 80 69 59 55 18 26 58 64 79 86 91 124 155 110 77 288 275 256 236 210 198 197 208 221
72 101 38 31 62 53 44 64 97 110 92 71 55 51 54 59 65 71 71 69 62 46 36 38 42 47 50 50 52 37 19 13 15 258 263 264 261 257 251 232 216 218 226
47 55 44 29 13 56 53 73 87 92 96 97 100 73 54 57 63 47 17 22 62 59 49 48 44 38 34 32 33 26 8 355 333 315 298 287 281 274 269 261 248 240 234
96 82 22 338 339 56 49 80 93 98 92 81 76 62 18 23 52 46 37 41 55 58 49 46 42 39 36 30 24 14 359 353 347 342 330 321 306 294 288 285 275 263 247
144 133 167 282 337 62 61 83 98 102 98 90 80 56 12 32 66 65 54 44 48 52 53 46 40 37 37 27 20 10 7 4 7 5 358 348 334 314 298 288 284 277 271
152 151 173 134 78 68 62 90 102 105 107 107 115 106 24 34 67 70 61 49 47 48 49 47 46 42 36 28 23 19 15 11 5 356 344 332 323 310 298 289 286 282 274
249 125 117 103 101 107 101 108 115 117 118 117 116 114 93 74 76 77 74 62 52 49 46 47 47 38 31 29 29 34 28 12 352 337 327 319 316 311 306 299 292 287 276
204 120 114 114 114 121 115 117 122 123 127 128 123 119 109 96 85 76 69 66 64 57 52 52 47 38 36 36 36 40 28 357 336 325 326 320 314 306 302 298 295 293 289
167 135 120 121 132 126 124 127 129 126 127 125 114 102 94 90 87 81 73 68 71 67 59 52 45 39 34 39 33 19 358 349 342 328 310 306 310 313 314 315 316 314 305
163 140 122 120 121 119 120 120 119 117 111 102 95 91 88 84 84 82 77 72 71 68 61 50 52 54 35 24 16 6 358 351 345 338 320 302 312 325 336 328 323 317 312